Regional Weather Roundup
Issued by NWS

Home | Current Version | Previous Version | Text Only | Print | Product List | Glossary On
Versions: 1 2 3 4 5 6 7 8 9 10 11 12 13 14 15 16 17 18 19 20 21 22 23 24 25 26 27 28 29 30 31 32 33 34 35 36 37 38 39 40 41 42 43 44 45 46 47 48 49 50
000
ASUS43 KDTX 251010
RWRMI
MICHIGAN HOURLY REGIONAL WEATHER ROUNDUP
NATIONAL WEATHER SERVICE DETROIT/PONTIAC MI
600 AM EDT TUE APR 25 2017

NOTE: "FAIR" INDICATES FEW OR NO CLOUDS BELOW 12,000 FEET WITH NO
SIGNIFICANT WEATHER AND/OR OBSTRUCTION TO VISIBILITY.

MIZ047>049-052>055-059>063-066>070-074>076-081>083-251100-
SOUTHEAST LOWER MICHIGAN

CITY           SKY/WX    TMP DP  RH WIND       PRES   REMARKS
ADRIAN         CLOUDY    50  47  89 E7        29.86S
ALMA           CLOUDY    48  42  81 E6        29.86S
ANN ARBOR      CLOUDY    50  44  80 NE6       29.86S
BAD AXE        CLOUDY    46  36  67 SE10G18   29.90F
CARO           CLOUDY    48  38  68 E9        29.87F
DETROIT        CLOUDY    51  43  74 E6        29.88F
FLINT          CLOUDY    50  41  71 E8        29.85F
GROSSE ILE     CLOUDY    49  43  80 E6        29.87S
HILLSDALE      CLOUDY    52  45  76 SE7       29.83S
HOWELL         CLOUDY    52  41  67 SE9       29.84F

CITY           SKY/WX    TMP DP  RH WIND       PRES   REMARKS
JACKSON        CLOUDY    52  46  80 SE10      29.83S
LAMBERTVILLE   CLOUDY    52  49  89 E5        29.85F
LANSING        CLOUDY    53  43  68 SE8       29.84S
LAPEER         CLOUDY    49  38  67 SE5       29.88S
MASON          CLOUDY    52  46  79 SE7       29.84S
MONROE         CLOUDY    50  46  84 E5        29.86S
MT. CLEMENS    MOCLDY    49  43  78 E5        29.88S
PONTIAC        CLOUDY    50  41  71 E8        29.86F
PORT HOPE        N/A     47  37  68 SE17G26   29.89F
PORT HURON     CLOUDY    48  37  66 E5        29.90F
TRI CITIES     CLOUDY    49  41  74 E9        29.87F
MIDLAND        CLOUDY    50  38  65 E7        29.86F
TROY           MOCLDY    51  40  67 E6        29.90S
SAGINAW HB     CLOUDY    50  37  62 E7        29.86F
$$
MIZ043>046-050>051-056>058-064>065-071>073-077>080-251100-
SOUTHWEST LOWER MICHIGAN

CITY           SKY/WX    TMP DP  RH WIND       PRES   REMARKS
BATTLE CREEK   CLOUDY    53  47  79 SE6       29.83R
BENTON HARBOR  CLEAR     53  45  74 SE8       29.77S
BIG RAPIDS     CLEAR     44  39  85 CALM      29.82F
COLDWATER      MOCLDY    52  47  82 SE5       29.82S
FREMONT        FAIR      50  39  67 SE7       29.79F
HOLLAND        CLEAR     53  45  74 SE9       29.79F
GRAND RAPIDS   PTCLDY    49  43  80 E8        29.81F
IONIA          CLOUDY    49  42  77 E6        29.83S
KALAMAZOO      PTCLDY    52  44  74 SE5       29.82R
LUDINGTON      PTCLDY    51  43  72 SE9       29.77F
MARSHALL       CLOUDY    53  47  82 SE6       29.82S
MOUNT PLEASANT CLOUDY    43  40  91 CALM      29.85S
MUSKEGON       PTCLDY    51  42  71 SE9       29.78F
SOUTH HAVEN    CLEAR     52  45  76 SE8       29.77F
$$
MIZ016>042-251100-
NORTHERN LOWER MICHIGAN

CITY           SKY/WX    TMP DP  RH WIND       PRES   REMARKS
ALPENA         CLOUDY    40  38  93 SE3       29.93S
BEAVER ISLAND  CLOUDY    42  37  81 E8        29.83F
BELLAIRE       CLOUDY    52  38  58 CALM      29.83F
CADILLAC       CLEAR     40  37  89 E7        29.83F
CHARLEVOIX     CLOUDY    51  38  62 SE10G16   29.85F
FRANKFORT      CLOUDY    57  42  57 SE10      29.78R
GAYLORD        CLOUDY    43  33  68 SE7       29.87S
GRAYLING       CLOUDY    35  33  90 NE5       29.88F WCI  31
HARBOR SPRINGS CLOUDY    43  35  74 NE10      29.85F
HOUGHTON LAKE  CLOUDY    43  37  79 E5        29.88R
MANISTEE       MOCLDY    53  41  63 E9        29.77F
OSCODA         CLEAR     37  32  82 CALM      29.90S
PELLSTON       PTCLDY    42  35  76 SE8       29.87F
ROGERS CITY    PTCLDY    39  36  88 SE5       29.93S
TRAVERSE CITY  MOCLDY    52  39  61 VRB5      29.80F
$$
MIZ007>008-015-251100-
EASTERN UPPER MICHIGAN

CITY           SKY/WX    TMP DP  RH WIND       PRES   REMARKS
KINROSS        MOCLDY    39  32  76 E17       29.89F WCI  30
MACKINAC ISLAN PTCLDY    38  38 100 E15G23    29.88S WCI  29
NEWBERRY       CLOUDY    42  35  78 SE10      29.84F
S. S. MARIE    PTCLDY    44  31  60 SE10      29.90F
MUNISING         N/A     47  36  65 S10       29.75F
$$
MIZ004>006-011>014-085-251100-
CENTRAL UPPER MICHIGAN

CITY           SKY/WX    TMP DP  RH WIND       PRES   REMARKS
MANISTIQUE     CLOUDY    43  38  83 E17G36    29.74F
ESCANABA       CLOUDY    49  39  68 SE12      29.77R
MENOMINEE      MOCLDY    50  39  66 S8        29.75F
SAWYER-GWINN   CLOUDY    44  37  76 S9        29.76R
$$
MIZ001>003-009>011-084-251100-
WESTERN UPPER MICHIGAN

CITY           SKY/WX    TMP DP  RH WIND       PRES   REMARKS
IRON MOUNTAIN  CLOUDY    44  35  70 SE6       29.71F
HOUGHTON       CLOUDY    43  34  70 E10       29.68F
COPPER HARBOR    N/A     47  37  68 S13G29    29.69F
IRONWOOD       CLOUDY    53  33  46 SE10G18   29.62F
$$

ABBREVIATIONS USED IN REMARKS
   TC - TEMPERATURE IN CELSIUS
  WCI - WIND CHILL INDEX
   HX - HEAT INDEX
  VSB - VISIBILITY





USA.gov is the U.S. government's official web portal to all federal, state and local government web resources and services.